Weather History for Blackpool, United Kingdom

Change the Weather History Date:

Monday, September 3, 2012

  Actual Average Record
Temperature  
Mean Temperature 60 °F -  
Max Temperature 65 °F 60 °F 72 °F (2014)
Min Temperature 56 °F 50 °F 46 °F (2000)
Degree Days  
Heating Degree Days 4    
Growing Degree Days 10 (Base 50)    
Moisture  
Dew Point 58 °F    
Average Humidity 84    
Maximum Humidity 94    
Minimum Humidity 70    
Precipitation  
Precipitation 0.00 in - - ()
Sea Level Pressure  
Sea Level Pressure 30.27 in    
Wind  
Wind Speed 6 mph ()    
Max Wind Speed 10 mph    
Max Gust Speed -    
Visibility 6.2 miles    
Events      
Averages and records for this station are not official NWS values.
T = Trace of Precipitation, MM = Missing Value Source: Averaged Metar Reports

Daily Weather History Graph

Daily Weather History Graph

Search for Another Location

Airport:

Trip Planner

Search our weather history database for the weather conditions in past years. The results will help you decide how hot, cold, wet, or windy it might be!

Date:

Astronomy

Sep. 03, 2012 Rise Set
Actual Time 6:24 AM BST 7:56 PM BST
Civil Twilight 5:48 AM BST 8:33 PM BST
Nautical Twilight 5:02 AM BST 9:18 PM BST
Astronomical Twilight 4:12 AM BST 10:08 PM BST
Moon 8:28 PM BST (9/3) 9:55 AM BST (9/3)
Length of Visible Light 14h 45m
Length of Day
13h 31m
Waning Gibbous, 91% of the Moon is Illuminated
Sep 3
Waning Gibbous
Sep 8
Last Quarter
Sep 16
New
Sep 22
First Quarter
Sep 30
Full

Hourly Weather History & Observations

Time (BST) Temp. Dew Point Humidity Pressure Visibility Wind Dir Wind Speed Gust Speed Precip Events Conditions
12:50 AM 59 °F 54 °F 79%  in - WNW 9.2 mph - -  
3:50 AM 58 °F 55 °F 87%  in - West 8.1 mph - -  
6:20 AM 59.0 °F 57.2 °F 94% 30.30 in - West 6.9 mph - N/A   Clear
6:50 AM 58 °F 55 °F 85%  in - West 8.1 mph - -  
6:50 AM 59.0 °F 57.2 °F 94% 30.30 in - West 8.1 mph - N/A   Clear
7:20 AM 59.0 °F 57.2 °F 94% 30.30 in - West 5.8 mph - N/A   Clear
7:50 AM 59.0 °F 57.2 °F 94% 30.30 in - WSW 5.8 mph - N/A   Clear
8:20 AM 60.8 °F 57.2 °F 88% 30.30 in 6.2 mi West 9.2 mph - N/A   Partly Cloudy
8:50 AM 60.8 °F 59.0 °F 94% 30.30 in 6.2 mi WSW 9.2 mph - N/A   Partly Cloudy
9:20 AM 62.6 °F 59.0 °F 88% 30.30 in 6.2 mi WSW 10.4 mph - N/A   Partly Cloudy
9:50 AM 62 °F 57 °F 79%  in - WSW 10.4 mph - -  
9:50 AM 62.6 °F 59.0 °F 88% 30.30 in 6.2 mi West 10.4 mph - N/A   Partly Cloudy
10:20 AM 62.6 °F 59.0 °F 88% 30.30 in 6.2 mi West 9.2 mph - N/A   Partly Cloudy
10:50 AM 64.4 °F 60.8 °F 88% 30.30 in 6.2 mi WSW 9.2 mph - N/A   Partly Cloudy
11:20 AM 64.4 °F 59.0 °F 83% 30.30 in 6.2 mi WSW 10.4 mph - N/A   Partly Cloudy
11:50 AM 64.4 °F 59.0 °F 83% 30.30 in 6.2 mi WSW 9.2 mph - N/A   Partly Cloudy
12:20 PM 64.4 °F 59.0 °F 83% 30.33 in 6.2 mi WSW 9.2 mph - N/A   Partly Cloudy
12:50 PM 63 °F 57 °F 74%  in - WSW 9.2 mph - -  
12:50 PM 64.4 °F 59.0 °F 83% 30.30 in 6.2 mi WSW 8.1 mph - N/A   Partly Cloudy
1:20 PM 64.4 °F 59.0 °F 83% 30.30 in 6.2 mi SW 5.8 mph - N/A   Partly Cloudy
1:50 PM 64.4 °F 59.0 °F 83% 30.30 in 6.2 mi WSW 5.8 mph - N/A   Partly Cloudy
2:20 PM 64.4 °F 59.0 °F 83% 30.27 in 6.2 mi West 5.8 mph - N/A   Partly Cloudy
2:50 PM 64.4 °F 57.2 °F 77% 30.27 in 6.2 mi West 4.6 mph - N/A   Partly Cloudy
3:20 PM 64.4 °F 57.2 °F 77% 30.27 in - WSW 4.6 mph - N/A   Clear
3:50 PM 63 °F 56 °F 70%  in - West 5.8 mph - -  
3:50 PM 64.4 °F 57.2 °F 77% 30.24 in - West 5.8 mph - N/A   Clear
4:20 PM 64.4 °F 57.2 °F 77% 30.24 in - West 4.6 mph - N/A   Clear
4:50 PM 64.4 °F 57.2 °F 77% 30.24 in - West 4.6 mph - N/A   Clear
5:20 PM 64.4 °F 57.2 °F 77% 30.24 in - WSW 4.6 mph - N/A   Clear
5:50 PM 64.4 °F 59.0 °F 83% 30.21 in - Variable 3.5 mph - N/A   Clear
6:50 PM 63 °F 57 °F 76%  in - West 3.5 mph - -  
6:50 PM 64.4 °F 57.2 °F 77% 30.21 in - West 4.6 mph - N/A   Clear
7:20 PM 62.6 °F 57.2 °F 82% 30.21 in - Calm Calm - N/A   Clear
7:50 PM 62.6 °F 57.2 °F 82% 30.21 in - Calm Calm - N/A   Clear
8:20 PM 60.8 °F 57.2 °F 88% 30.21 in - SW 2.3 mph - N/A   Clear
8:50 PM 60.8 °F 57.2 °F 88% 30.21 in - Calm Calm - N/A   Clear
9:50 PM 57 °F 54 °F 88%  in - South 3.5 mph - -